Weather in Dunayka

Russia / Belgorod Oblast     50°32′57″N   35°32′00″E
temp.,
°C
wind,
m/s
gust,
m/s
humid.,
%
clouds,
%
prec.,
mm/h
press.,
hPa
HPBL,
m
17 may, mon
mon1700:00+16ene41187100 1.1 1007211
03:00+16ene51293100 1.1 1006239
06:00+15e51484100 0.0 1004287
09:00+20ese59645 0.0 1004513
12:00+23se8105335 0.0 10031020
15:00+24se696097 0.3 10031468
18:00+24sse51070100 0.1 1003659
21:00+19se51278100 0.1 1004324
18 may, tue
tue1800:00+17sse31093100 0.6 1005281
03:00+16se3596100 0.9 1005104
06:00+16sse1496100 0.0 1004133
09:00+15se4797100 5.8 1006354
12:00+18sse4783100 0.8 1005719
15:00+20sse677096 2.8 10041280
18:00+19sse58785 1.4 1004743
21:00+15se4109229 2.6 1005232
19 may, wed
wed1900:00+14sse49955 0.1 1005224
03:00+12sse389648 0.1 1005185
06:00+13se379764 0.0 1005276
09:00+16sse458788 0.2 1005659
12:00+14sw3494100 2.5 1006344
15:00+13ssw2392100 3.6 1007296
18:00+14se2389100 0.3 1007352
21:00+12ese3493100 0.3 100783
20 may, thu
thu2000:00+11ese2293100 0.0 100620
03:00+12se2393100 0.1 100549
06:00+11s369513 0.0 1005156
09:00+13sw5791100 0.1 1006617
12:00+15wsw788299 0.2 1007922
15:00+17wsw71168100 0.4 10081570
18:00+16wsw487499 0.3 10081080
21:00+12ssw2288100 0.4 100917
21 may, fri
fri2100:00+12sw4894100 0.4 1009369
03:00+12wsw5897100 2.9 1010588
06:00+10ne0193100 1.3 101168
09:00+13sw3791100 1.4 1012475
12:00+17wsw4572100 0.1 10131041
15:00+19wnw345976 0.1 10131440
18:00+17nnw4670100 0.0 1014366
21:00+13nne3780100 0.0 1016158